Regional Weather Roundup
Issued by NWS

Home | Current Version | Previous Version | Graphics & Text | Print | Product List | Glossary On
Versions: 1 2 3 4 5 6 7 8 9 10 11 12 13 14 15 16 17 18 19 20 21 22 23 24 25 26 27 28 29 30 31 32 33 34 35 36 37 38 39 40 41 42 43 44 45 46 47 48 49 50
627
ASUS43 KLMK 272010
RWRKY
KENTUCKY REGIONAL WEATHER ROUNDUP
NATIONAL WEATHER SERVICE LOUISVILLE KY
400 PM EDT THU JUL 27 2017

NOTE "FAIR" INDICATES FEW OR NO CLOUDS BELOW 12,000 FEET
WITH NO SIGNIFICANT WEATHER AND/OR OBSTRUCTIONS TO VISIBILITY.

KYZ001>023-026-027-061>063-070>075-272100-
WESTERN AND SOUTH CENTRAL KENTUCKY

CITY           SKY/WX    TMP DP  RH WIND       PRES   REMARKS
PADUCAH        CLOUDY    88  76  67 NW7       29.91F HX  99
HENDERSON      NOT AVBL
OWENSBORO      CLOUDY    84  77  79 NW6       29.92F HX  94
HOPKINSVILLE   MOSUNNY   89  71  55 SW13      29.92F HX  95
BOWLING GREEN  CLOUDY    91  73  55 W10       29.92F HX  99
GLASGOW        PTSUNNY   90  71  54 SW10      29.93S HX  96
$$

KYZ024-025-028>034-038-045-046-053-272100-
NORTH CENTRAL KENTUCKY

CITY           SKY/WX    TMP DP  RH WIND       PRES   REMARKS
LOUISVILLE/SDF CLOUDY    86  74  67 W7        29.91F HX  94
LOUISVILLE/LOU CLOUDY    86  76  71 W7        29.92F HX  96
FORT KNOX      CLOUDY    80  76  88 CALM      29.92F
$$

KYZ035>037-039>044-047>052-055>060-089>105-272100-
NORTHEAST KENTUCKY

CITY           SKY/WX    TMP DP  RH WIND       PRES   REMARKS
LEXINGTON      CLOUDY    85  74  69 W6        29.93F HX  92
COVINGTON      PTSUNNY   84  73  69 W16       29.91F HX  90
FRANKFORT      CLOUDY    81  74  79 W5        29.92F
$$

KYZ054-064>069-076>088-106>120-272100-
SOUTHEAST KENTUCKY

CITY           SKY/WX    TMP DP  RH WIND       PRES   REMARKS
JACKSON        RAIN      74  71  91 VRB3      29.98F FOG
LONDON         PTSUNNY   83  71  67 S9        29.97F
SOMERSET       CLOUDY    86  68  54 W8        29.96F
MIDDLESBORO    CLOUDY    77  70  78 CALM      30.01F
MONTICELLO     CLOUDY    89  74  60 W15G21    29.97F HX  98
$$





USA.gov is the U.S. government's official web portal to all federal, state and local government web resources and services.